Home   Weather   Anchorage   Past weeks
Flag for USA

Past Weather in Anchorage, Alaska, USA — Yesterday and Last 2 Weeks

Now
36 °F

Fog.


Feels Like: 32 °F
Forecast: 45 / 37 °F
Wind: 5 mph from Northeast

Location: Lake Hood Seaplane

Current Time: Oct 20, 2019 at 1:15:57 am

Latest Report: Oct 20, 2019 at 12:36 am


Visibility: 1 mi

Pressure: 29.64 "Hg

Humidity: 97%

Dew Point: 35 °F

Location of AnchorageLocation

Past Weather in Anchorage — Graph

°F

Anchorage Temperature Yesterday

Maximum temperature yesterday: 44 °F (at 3:53 pm)
Minimum temperature yesterday: 36 °F (at 10:32 pm)
Average temperature yesterday: 38 °F

High & Low Weather Summary for the Past Weeks

 TemperatureHumidityPressure
High51 °F (Oct 8, 2:53 pm)97% (Oct 10, 8:53 am)30.34 "Hg (Oct 10, 8:53 am)
Low26 °F (Oct 15, 6:53 am)38% (Oct 5, 3:53 pm)29.04 "Hg (Oct 17, 4:53 pm)
Average39 °F72%29.70 "Hg
* Reported Oct 4 11:53 pm — Oct 19 11:53 pm, Anchorage. Weather by CustomWeather, © 2019

Note: Actual official high and low records may vary slightly from our data, if they occured in-between our weather recording intervals... More about our weather records

Advertising

Anchorage Weather History for the Previous 24 Hours

Scroll right to see more
 ConditionsComfort  
Time TempWeatherWind HumidityBarometerVisibility
11:53 pm
Sat, Oct 19
36 °FFog.6 mph97%29.63 "Hg1 mi
11:23 pm36 °FFog.6 mph92%29.62 "Hg1 mi
11:07 pm36 °FFog.5 mph92%29.62 "Hg2 mi
10:32 pm36 °FFog.7 mph97%29.61 "Hg1 mi
10:10 pm37 °FFog.7 mph93%29.60 "Hg1 mi
10:03 pm37 °FFog.7 mph93%29.60 "Hg2 mi
9:02 pm37 °FFog.8 mph93%29.59 "Hg6 mi
8:53 pm37 °FFog.7 mph93%29.59 "Hg2 mi
8:13 pm37 °FLow clouds.9 mph93%29.58 "Hg10 mi
7:53 pm37 °FPassing clouds.7 mph93%29.58 "Hg10 mi
6:53 pm37 °FPassing clouds.5 mph89%29.57 "Hg10 mi
5:53 pm40 °FSunny.7 mph83%29.56 "Hg10 mi
4:53 pm41 °FSunny.7 mph80%29.55 "Hg10 mi
3:53 pm44 °FSunny.9 mph65%29.54 "Hg10 mi
2:53 pm43 °FSunny.7 mph60%29.54 "Hg10 mi
1:53 pm43 °FSunny.8 mph71%29.53 "Hg10 mi
12:53 pm42 °FSunny.7 mph68%29.53 "Hg10 mi
11:53 am38 °FSunny.7 mph83%29.53 "Hg10 mi
10:53 am38 °FPartly sunny.7 mph79%29.52 "Hg10 mi
9:53 am37 °FLight rain. Mostly cloudy.6 mph79%29.51 "Hg10 mi
8:53 am37 °FOvercast.6 mph79%29.49 "Hg10 mi
7:53 am39 °FLight rain. Overcast.5 mph86%29.47 "Hg10 mi
5:53 am37 °FPassing clouds.3 mph93%29.46 "Hg10 mi
4:53 am37 °FOvercast.No wind93%29.46 "Hg10 mi
3:53 am37 °FOvercast.No wind93%29.46 "Hg10 mi
2:53 am38 °FMostly cloudy.3 mph90%29.44 "Hg10 mi
1:53 am38 °FPassing clouds.5 mph86%29.44 "Hg10 mi
Weather by CustomWeather, © 2019

See weather overview